Overview Statistics Trail Chart Weather Telemetry Raw packets
 

This is the latest recevied weather packets stored in our database for station/object KK7MLS-13. If no packets are shown the sender has not sent any weather packets the latest 10 day(s).

<< 57 58 59 60 61 62 63 >>
Time Temp. Humidity Pressure Rain* Wind** Luminosity Snow
1788286993 16.67° C 83% 1012.8 hPa 0 mm - 169 W/m² -
1788286689 16.67° C 84% 1012.6 hPa 0 mm - 101 W/m² -
1788286383 16.67° C 85% 1012.6 hPa 0 mm - 104 W/m² -
1788286083 16.11° C 86% 1012.7 hPa 0 mm - 215 W/m² -
1788285782 16.11° C 86% 1012.8 hPa 0 mm - 149 W/m² -
1788285481 16.11° C 87% 1012.6 hPa 0 mm - 132 W/m² -
1788285176 16.11° C 87% 1012.8 hPa 0 mm - 80 W/m² -
1788284871 15.56° C 87% 1012.7 hPa 0 mm - 94 W/m² -
1788284575 15.56° C 89% 1012.7 hPa 0 mm - 66 W/m² -
1788284262 15.56° C 88% 1012.8 hPa 0 mm - 119 W/m² -
1788283957 15.56° C 90% 1012.7 hPa 0 mm - 73 W/m² -
1788283654 15.56° C 91% 1012.6 hPa 0 mm - 105 W/m² -
1788283352 15° C 92% 1012.6 hPa 0 mm - 99 W/m² -
1788283051 15° C 92% 1012.6 hPa 0 mm - 61 W/m² -
1788282750 15° C 92% 1012.6 hPa 0 mm - 44 W/m² -
1788282449 15° C 92% 1012.6 hPa 0 mm - 33 W/m² -
1788282144 15° C 93% 1012.6 hPa 0 mm - 93 W/m² -
1788281843 15° C 93% 1012.7 hPa 0 mm - 100 W/m² -
1788281538 15° C 93% 1012.5 hPa 0 mm - 94 W/m² -
1788281235 14.44° C 94% 1012.7 hPa 0 mm - 74 W/m² -
1788280935 14.44° C 94% 1012.7 hPa 0 mm - 74 W/m² -
1788280630 14.44° C 94% 1012.6 hPa 0 mm - 55 W/m² -
1788280329 14.44° C 94% 1012.7 hPa 0 mm - 43 W/m² -
1788280025 14.44° C 94% 1012.7 hPa 0 mm - 45 W/m² -
1788279724 14.44° C 94% 1012.8 hPa 0 mm - 43 W/m² -

* Rain latest hour (hover to see other rain measurements)
** Current wind speed in m/s (hover to see current wind gust speed)